Aérodrome :
LOGIN :

S'inscrire | Disclaimer

   EN    FR    IT 

 










Légende :    VFR   VFR Marginal   IFR   IFR Intensif   IFR Très Intensif
Visi : 
Plafond : 
>= 8 km
>= 3000ft
5 à 8 km
1000 à 3000 ft
1500m à 5 km
500 à 1000 ft
800 à 1500m
200 à 500 ft
< 800m
< 200 ft
Symboles :   Orages  Brouillard  Fortes neiges  Fortes précipitations  Vent > 20 kt
SIGMETs :   Divers  Orages  Givrage  Turbulence  Onde Orograph.  Cendres Volcan.







- Altitude de l'aérodrome : 13 ft
- Code IATA : LYX
- Voir les cartes d'approche


EGMD - Lydd

DERNIER METAR :
  • 150920Z 33011KT 9999 FEW010 02/01 Q0994

METARs EXPIRÉS :
  • 150850Z 34008KT 9999 FEW010 SCT018 02/01 Q0993
  • 150820Z 33007KT 9999 FEW010 BKN027 02/01 Q0992
  • 150750Z AUTO 32007KT 9999 SCT039/// 02/01 Q0992
  • 150720Z AUTO 32005KT 9999 BKN038/// 02/00 Q0991

TAF TAF EGMD
Valide du 15 à 09h jusqu'au 15 à 18h UTC


150802Z 1509/1518 26008KT 9999 SCT040
BECMG 1509/1511 34010KT
PROB30
TEMPO 1509/1511 7000 SHRA BKN010
ATIS : +44 1797 322 422
Pas de NOTAMs connus pour ce terrain.



MET'MAP, la Météo Aéronautique d'un coup d'oeil ! - Copyright ORBIFLY Décembre 2007 - Disclaimer

ORBIFLY MET'MAP TEAM :

Programmation & Développement : Alexandra Zaïnal
Conception & Développement : Baudouin d'Aumeries
Co-Programmation & Développement : Marc-Olivier Méhu
Soutien technique & logistique : Manuel Goepfert

Contact : metmap@orbifly.com




SOURCES & CREDITS :

   NOAA